Home   Weather   Abbotsford   Past weeks

Flag for Canada Past Weather in Abbotsford, British Columbia, Canada — Yesterday and Last 2 Weeks

Now
61 °F

Partly sunny.


Feels Like: 61 °F
Forecast: 54 / 70 °F
Wind: 7 mph from Northeast

Location: Abbotsford

Current Time: Sep 25, 2016 at 12:12:27 PM

Latest Report: Sep 25, 2016 at 11:00 AM


Visibility: 25 mi

Pressure: 30.42 "Hg

Humidity: 72%

Dew Point: 52 °F

Location of AbbotsfordLocation

Past Weather in Abbotsford — Graph

°F

Abbotsford Temperature Yesterday

Maximum temperature yesterday: 63 °F (at 3:00 PM)
Minimum temperature yesterday: 54 °F (at 12:00 AM)
Average temperature yesterday: 57 °F

High & Low Weather Summary for the Past Weeks

 TemperatureHumidityPressure
High79 °F (Sep 13, 3:00 PM)100% (Sep 17, 8:00 AM)30.43 "Hg (Sep 17, 8:00 AM)
Low45 °F (Sep 22, 7:00 AM)21% (Sep 12, 3:00 PM)29.80 "Hg (Sep 17, 11:00 AM)
Average59 °F75%30.08 "Hg
* Reported Sep 10 11:00 AM — Sep 25 11:00 AM, Abbotsford, Weather by CustomWeather, © 2016

Note: Actual official high and low records may vary slightly from our data, if they occured in-between our weather recording intervals... More about our weather records

Advertising

Abbotsford Weather History for the Previous 24 Hours

Scroll right to see more
 ConditionsComfort  
Time TempWeatherWind HumidityBarometerVisibility
11:00 AM
Sun, Sep 25
61 °FPartly sunny.7 mph72%30.42 "Hg25 mi
10:00 AM59 °FOvercast.8 mph77%30.43 "Hg25 mi
9:00 AM57 °FOvercast.7 mph82%30.42 "Hg30 mi
8:00 AM55 °FOvercast.8 mph88%30.41 "Hg25 mi
7:00 AM55 °FOvercast.8 mph82%30.40 "Hg25 mi
6:00 AM55 °FOvercast.7 mph82%30.40 "Hg15 mi
5:00 AM55 °FOvercast.8 mph88%30.39 "Hg15 mi
4:00 AM55 °FOvercast.5 mph88%30.39 "Hg15 mi
1:00 AM55 °FOvercast.2 mph94%30.41 "Hg15 mi
12:00 AM57 °FLight rain. Overcast.2 mph88%30.41 "Hg10 mi
11:00 PM
Sat, Sep 24
57 °FOvercast.2 mph82%30.40 "Hg15 mi
10:00 PM57 °FOvercast.3 mph88%30.39 "Hg15 mi
9:00 PM59 °FLight rain. Overcast.2 mph77%30.38 "Hg10 mi
8:50 PM59 °FLight rain. Mostly cloudy.3 mph72%30.38 "Hg10 mi
8:00 PM59 °FOvercast.3 mph77%30.35 "Hg15 mi
7:00 PM61 °FMore clouds than sun.2 mph72%30.34 "Hg30 mi
6:00 PM61 °FPartly sunny.6 mph72%30.34 "Hg30 mi
5:00 PM63 °FMore clouds than sun.6 mph59%30.35 "Hg20 mi
4:00 PM63 °FBroken clouds.5 mph59%30.35 "Hg20 mi
3:00 PM63 °FPartly sunny.3 mph64%30.36 "Hg20 mi
2:00 PM61 °FMore clouds than sun.3 mph63%30.38 "Hg20 mi
1:00 PM61 °FBroken clouds.2 mph68%30.39 "Hg15 mi
12:00 PM59 °FBroken clouds.3 mph77%30.40 "Hg10 mi
Weather by CustomWeather, © 2016

See weather overviewHow to use our weather pages